Location: Newark
(48.6461°N, 4.3644°W)
Time: 08:18:04
(UTC+00:00)

Altair - Pass Details

Date: 19 January 2021
Orbit: 1501 x 1682 km, 47.2° (Epoch: 24 February)

Event Time Altitude Azimuth Distance (km) Brightness Sun altitude
Rises 07:03:13 0° 230° (SW) 4,889 9.8 -9.5°
Reaches altitude 10° 07:06:24 10° 227° (SW) 3,918 9.4 -9.0°
Maximum altitude 07:16:12 58° 151° (SSE) 1,907 8.3 -7.5°
Drops below altitude 10° 07:26:02 10° 77° (ENE) 3,934 10.5 -6.0°
Sets 07:29:14 0° 73° (ENE) 4,910 11.0 -5.6°
